Wind_Speed
9 9 8 8 8 8 9 9 9 10 10 9 9 10 10 10 9 10 10 10 10 10 11 11 11 11 12 12 12 12 12 11 11 11 11 10 10 10 10 10 11 11 11
10 10 9 9 10 10 10 9 10 10 10 10 9 9 9 10 10 10 11 11 11 12 12 12 12 13 13 13 13 13 13 12 12 12 12 12 12 12 12 12 12 11 11
10 10 10 10 10 10 10 10 10 11 11 11 11 11 11 11 12 12 11 11 12 12 12 13 13 13 13 13 13 13 13 13 13 13 13 13 13 13 13 13 13 12 12
11 11 10 10 10 11 11 11 11 11 11 11 11 11 12 12 12 12 12 12 12 12 12 13 14 14 14 14 13 13 14 14 14 14 14 14 14 14 14 14 14 13 13
12 12 11 12 12 12 12 12 13 13 13 13 13 12 13 13 12 13 13 13 13 13 13 13 13 14 14 14 14 14 14 14 14 15 15 15 15 15 15 14 14 14 14
13 13 13 13 13 13 13 13 13 14 14 14 14 13 14 14 14 15 14 14 14 14 14 13 13 14 14 14 14 14 15 15 15 15 15 15 15 15 15 15 14 14 14
14 14 14 14 14 14 14 14 14 14 15 14 15 14 14 15 16 16 15 15 15 15 14 15 15 15 14 15 15 15 15 15 15 15 15 15 15 16 16 16 15 15 15
15 15 14 14 14 14 14 15 14 14 14 15 15 15 15 16 16 17 16 16 16 15 15 15 15 15 15 15 15 15 15 15 16 16 16 16 16 16 16 16 16 16 15
16 15 16 15 15 15 15 15 15 15 16 16 16 16 16 17 17 18 17 17 16 16 16 16 16 15 15 16 16 16 16 16 16 16 16 16 16 16 16 16 16 16 16
16 17 17 17 16 16 15 16 16 16 17 18 18 18 18 19 19 18 18 18 17 17 17 17 17 17 16 16 16 16 16 17 17 17 17 17 17 16 16 16 16 16 16
18 18 19 19 18 17 18 18 17 17 18 18 19 19 19 19 19 19 18 18 18 18 18 18 17 17 17 16 16 16 16 17 17 17 17 17 17 17 16 16 16 16 16
20 20 20 20 20 19 19 18 18 19 19 19 19 20 20 20 20 19 19 19 19 19 19 19 18 18 18 17 16 16 17 17 17 17 17 17 17 17 17 16 16 17 17
21 21 21 20 20 20 21 21 21 20 20 20 20 21 21 20 20 19 19 19 19 19 19 19 19 19 18 17 17 17 17 17 17 17 17 17 17 17 17 17 17 17 17
22 22 21 21 21 22 22 23 22 22 22 21 22 22 21 20 20 20 19 20 20 20 20 20 20 20 19 19 18 18 17 17 17 17 17 17 17 17 17 17 18 18 18
22 22 23 22 23 23 23 23 23 24 23 23 23 23 22 21 21 21 21 20 21 21 21 19 19 19 19 19 19 19 18 18 18 18 18 18 18 18 18 17 18 19 19
23 23 23 24 24 24 24 24 24 24 24 24 24 23 23 22 21 21 21 21 21 21 21 20 19 19 20 19 19 19 19 19 18 18 18 18 18 19 19 18 19 20 20
23 23 24 24 25 25 25 25 25 26 25 25 25 24 23 23 22 21 22 22 21 20 20 20 19 19 20 20 20 20 19 19 19 19 19 19 19 20 20 20 20 21 21
24 24 25 25 25 25 26 25 25 26 25 25 25 25 24 24 23 22 23 22 22 21 21 21 20 20 21 20 20 20 19 19 20 20 20 20 20 20 21 21 21 21 21
25 25 26 26 26 26 26 25 26 26 26 26 26 26 26 26 25 24 24 24 23 22 22 22 22 21 21 21 21 20 20 20 20 21 21 20 21 21 21 22 22 21 21
26 26 26 26 26 26 26 27 27 27 27 27 27 27 27 27 27 26 26 25 25 24 23 23 22 21 21 21 21 21 21 21 21 21 21 21 22 22 22 22 22 22 22
26 26 26 27 27 27 27 28 28 27 27 27 28 28 27 28 27 27 26 26 26 25 24 23 23 22 21 21 21 21 22 22 22 22 22 22 22 22 22 23 23 23 23
26 26 26 26 27 27 27 27 27 27 27 27 27 26 25 25 25 25 26 26 27 26 24 24 23 23 22 22 22 22 22 22 22 22 22 22 22 22 23 23 23 23 23
26 26 26 26 26 26 26 26 26 26 26 25 25 25 26 25 25 25 25 26 27 27 26 25 24 24 23 23 23 23 23 23 22 22 23 23 23 23 23 23 23 23 24
27 27 27 27 27 27 26 25 25 25 25 25 25 25 24 25 24 25 25 25 25 26 26 26 26 25 25 24 24 24 24 24 24 24 23 23 23 23 24 23 23 23 23
27 27 27 27 27 26 26 26 25 25 25 25 24 24 24 24 24 25 25 25 25 26 26 26 26 26 26 25 24 24 24 25 24 24 25 24 24 24 24 24 24 23 23
27 27 27 26 27 26 26 26 26 25 25 24 24 24 24 24 24 25 25 25 25 26 26 26 26 26 26 25 24 24 24 24 24 24 25 24 24 24 23 24 24 24 24
Wind_Direction
313 309 308 305 300 294 290 285 278 273 268 269 270 269 270 268 266 263 267 265 266 264 263 266 270 272 276 275 269 267 270 270 265 264 265 269 271 273 275 273 270 268 269
311 307 302 304 301 295 289 285 287 280 275 270 267 266 265 267 269 265 261 261 261 261 263 265 270 272 273 273 272 270 271 268 264 263 264 267 270 272 274 273 270 268 271
306 305 300 300 299 295 292 286 282 279 278 277 273 268 265 266 266 264 261 259 262 263 263 264 270 273 272 273 270 270 269 268 266 264 265 266 268 271 271 272 273 271 270
299 297 296 297 297 293 289 284 277 277 276 275 272 269 267 267 262 263 264 265 268 265 264 267 270 271 272 272 272 272 270 267 265 265 266 266 268 271 271 271 272 270 267
292 292 293 296 295 290 286 284 280 278 276 273 271 271 269 264 260 263 266 271 272 265 264 268 272 273 270 272 273 275 273 269 266 266 267 267 268 270 270 271 271 269 265
289 289 290 291 287 285 284 284 282 279 276 273 269 271 273 270 265 267 270 272 275 269 267 269 273 275 273 272 271 271 270 270 269 268 267 267 268 269 270 271 270 266 263
293 290 290 290 288 284 282 282 283 282 279 276 276 276 274 268 265 267 270 272 272 270 271 272 274 274 273 273 270 269 270 272 270 269 268 267 267 268 269 271 269 267 263
295 294 291 291 287 284 282 282 282 282 280 277 277 279 278 272 268 269 270 271 271 270 271 272 276 274 273 273 272 270 270 270 270 269 268 267 267 267 268 268 267 267 265
300 297 291 289 289 287 283 280 278 280 281 280 280 279 277 273 273 273 271 271 270 270 269 271 272 273 274 272 271 268 270 271 268 267 268 268 268 267 266 266 264 264 264
296 293 291 289 286 288 286 283 280 278 280 280 279 277 276 275 274 272 270 268 267 268 267 270 272 274 275 274 271 269 271 271 268 267 267 266 266 265 265 265 263 261 260
296 293 290 288 285 286 285 284 280 280 280 279 277 277 277 276 277 273 269 268 266 265 266 268 271 271 272 272 273 272 273 271 270 267 266 266 265 264 264 264 261 259 259
293 291 288 285 283 282 281 280 280 278 279 278 277 276 276 276 276 277 273 271 267 265 266 266 267 269 269 270 272 273 274 271 269 265 265 265 265 265 265 262 260 258 259
295 291 285 284 283 280 280 280 279 280 278 277 277 275 275 275 276 277 273 270 267 265 265 266 266 268 268 269 271 272 273 270 268 266 264 264 265 266 266 263 261 260 260
292 290 286 284 282 280 280 281 281 279 277 276 275 274 273 274 275 275 273 270 268 267 267 267 266 266 267 267 269 270 272 270 268 268 267 266 266 266 266 263 261 262 263
291 289 285 283 282 282 280 279 279 279 277 276 276 273 272 274 275 273 273 270 270 269 268 266 267 267 269 269 268 269 269 269 269 268 267 266 266 266 267 265 265 266 265
291 288 284 283 282 281 279 280 279 278 277 274 274 272 271 273 274 273 271 269 268 268 265 266 269 269 269 270 269 269 268 269 269 267 266 266 265 264 265 266 266 266 266
289 288 284 282 281 280 279 278 278 276 275 273 270 270 271 271 269 270 270 268 266 264 265 267 270 269 269 269 270 270 269 268 267 265 265 265 265 263 264 265 265 266 267
289 287 285 282 281 280 279 277 276 275 274 273 269 268 268 267 266 267 269 266 265 264 266 268 270 270 270 269 270 271 270 268 268 266 266 266 265 265 265 265 267 267 266
290 287 284 283 282 281 280 277 276 275 275 273 269 266 265 264 265 265 266 265 264 264 266 267 269 269 269 268 269 270 269 268 268 266 264 265 265 266 265 266 267 267 266
290 287 285 283 282 281 279 278 276 275 274 272 269 267 264 263 262 263 263 264 264 264 265 265 266 267 268 269 269 268 268 268 268 266 265 264 265 266 266 266 267 267 266
291 288 286 284 283 282 280 278 276 274 273 272 270 267 265 261 261 261 262 263 264 264 263 263 265 266 268 271 270 268 268 268 268 267 266 265 266 267 267 267 267 266 266
293 290 288 287 285 282 280 279 276 273 271 270 271 268 264 261 260 259 262 262 261 262 263 264 266 268 270 270 271 271 271 270 268 266 266 266 268 267 267 268 268 267 267
292 291 290 289 286 284 283 280 279 275 271 270 270 268 264 263 264 263 263 263 263 262 262 265 265 267 268 269 269 269 269 270 267 266 266 267 268 269 269 268 267 267 266
292 291 289 288 287 285 284 284 281 279 274 271 268 266 265 263 264 265 265 265 264 262 261 262 263 266 267 269 270 269 268 269 267 266 266 266 267 269 268 267 267 267 266
291 290 289 289 288 286 285 285 283 281 277 273 269 268 267 265 265 265 265 266 266 263 262 262 261 262 265 267 270 270 268 267 267 268 267 267 267 268 267 267 267 267 267
290 290 290 289 288 287 285 284 284 279 276 274 270 267 266 264 263 262 263 263 264 264 262 261 262 262 263 266 269 270 268 266 267 269 268 267 267 267 266 266 266 266 267
Height
5869 5868 5867 5866 5866 5865 5865 5865 5865 5865 5866 5866 5866 5866 5866 5866 5867 5867 5867 5867 5867 5868 5868 5868 5868 5867 5867 5867 5867 5867 5867 5867 5867 5867 5868 5868 5868 5868 5868 5868 5868 5869 5869
5867 5866 5866 5865 5864 5863 5863 5863 5863 5863 5863 5863 5863 5863 5864 5864 5864 5864 5864 5865 5865 5865 5865 5865 5865 5865 5864 5864 5864 5864 5864 5864 5865 5865 5865 5865 5865 5865 5865 5865 5866 5866 5866
5865 5864 5863 5863 5862 5861 5861 5861 5861 5861 5861 5861 5861 5861 5861 5861 5862 5861 5862 5862 5862 5862 5862 5862 5862 5862 5861 5861 5861 5861 5861 5862 5862 5862 5862 5862 5863 5863 5863 5863 5863 5863 5863
5863 5862 5861 5861 5860 5859 5859 5859 5859 5859 5859 5859 5859 5859 5859 5858 5858 5859 5859 5859 5859 5859 5859 5859 5859 5859 5858 5858 5858 5858 5858 5858 5859 5859 5859 5859 5859 5860 5859 5859 5860 5860 5860
5860 5859 5859 5858 5857 5857 5856 5856 5856 5856 5856 5856 5856 5855 5855 5855 5855 5856 5856 5856 5856 5856 5856 5856 5856 5856 5855 5855 5854 5854 5854 5854 5855 5855 5855 5855 5856 5856 5856 5856 5856 5856 5857
5857 5856 5856 5855 5855 5854 5854 5853 5853 5852 5852 5852 5852 5852 5852 5852 5852 5852 5853 5852 5852 5852 5852 5852 5852 5852 5852 5851 5850 5850 5850 5851 5851 5851 5851 5852 5852 5852 5852 5852 5853 5853 5853
5853 5853 5852 5852 5852 5851 5851 5850 5850 5849 5849 5849 5849 5849 5849 5849 5848 5849 5849 5849 5848 5848 5848 5849 5849 5848 5848 5847 5847 5846 5846 5847 5847 5847 5847 5848 5848 5848 5848 5849 5849 5849 5849
5850 5849 5849 5849 5848 5848 5848 5847 5847 5846 5846 5846 5845 5845 5845 5846 5845 5845 5844 5844 5844 5845 5845 5845 5845 5844 5844 5843 5843 5842 5842 5842 5842 5843 5843 5843 5844 5844 5844 5844 5845 5845 5846
5847 5846 5846 5845 5845 5844 5844 5843 5843 5842 5842 5842 5842 5842 5841 5841 5841 5841 5841 5840 5840 5840 5841 5841 5841 5840 5839 5839 5839 5838 5838 5838 5838 5838 5839 5839 5839 5840 5840 5840 5841 5841 5842
5843 5843 5842 5841 5841 5840 5840 5839 5839 5838 5838 5838 5837 5837 5837 5837 5837 5836 5836 5836 5836 5836 5836 5837 5836 5836 5835 5835 5834 5834 5834 5833 5833 5833 5834 5834 5835 5835 5836 5836 5836 5837 5837
5839 5838 5838 5837 5836 5836 5835 5835 5834 5834 5834 5833 5833 5832 5832 5832 5832 5832 5832 5832 5832 5832 5832 5832 5832 5831 5831 5831 5830 5830 5829 5829 5829 5829 5829 5830 5831 5831 5831 5832 5832 5833 5833
5834 5833 5832 5832 5831 5831 5830 5830 5829 5829 5829 5829 5828 5828 5827 5827 5827 5827 5827 5827 5827 5827 5827 5827 5827 5827 5826 5826 5826 5825 5825 5824 5824 5824 5825 5825 5826 5826 5827 5827 5827 5828 5829
5830 5828 5827 5827 5826 5825 5825 5825 5824 5824 5823 5823 5823 5823 5822 5822 5822 5822 5822 5822 5822 5822 5822 5822 5822 5822 5821 5821 5821 5821 5820 5820 5820 5820 5820 5821 5821 5822 5822 5822 5823 5823 5824
5824 5823 5822 5821 5820 5820 5819 5819 5818 5818 5818 5817 5817 5817 5817 5817 5817 5817 5817 5816 5816 5816 5817 5817 5816 5816 5816 5816 5816 5816 5815 5815 5815 5815 5816 5816 5816 5817 5817 5817 5818 5819 5819
5818 5817 5816 5815 5815 5814 5813 5812 5812 5812 5811 5811 5811 5811 5811 5811 5811 5811 5811 5811 5811 5811 5811 5811 5811 5811 5811 5811 5811 5811 5811 5810 5810 5810 5811 5811 5811 5812 5812 5813 5813 5813 5814
5811 5810 5810 5809 5808 5807 5807 5806 5805 5805 5805 5805 5804 5804 5804 5805 5805 5805 5805 5805 5805 5805 5805 5806 5805 5805 5805 5805 5805 5805 5805 5805 5805 5805 5805 5806 5806 5807 5807 5808 5808 5808 5809
5805 5804 5803 5802 5801 5800 5800 5799 5798 5798 5798 5798 5798 5798 5798 5798 5798 5799 5799 5799 5799 5799 5799 5800 5800 5800 5800 5800 5800 5800 5800 5800 5800 5800 5800 5800 5801 5801 5802 5802 5802 5803 5803
5798 5797 5796 5795 5794 5793 5792 5792 5791 5791 5790 5790 5790 5791 5791 5791 5792 5792 5792 5793 5793 5793 5794 5794 5794 5794 5794 5794 5794 5794 5794 5794 5794 5794 5794 5794 5795 5795 5796 5796 5797 5797 5797
5791 5790 5788 5787 5787 5786 5785 5784 5784 5783 5783 5783 5783 5783 5784 5784 5784 5785 5785 5786 5786 5787 5787 5788 5788 5788 5788 5788 5788 5788 5788 5788 5788 5788 5788 5788 5789 5789 5790 5790 5791 5791 5791
5783 5782 5781 5780 5779 5778 5777 5776 5776 5776 5775 5775 5775 5775 5775 5776 5777 5777 5778 5779 5779 5780 5781 5781 5781 5781 5781 5781 5782 5782 5782 5782 5782 5782 5782 5782 5783 5783 5784 5784 5784 5785 5785
5776 5775 5774 5772 5771 5770 5769 5768 5767 5767 5767 5767 5767 5767 5767 5767 5769 5770 5770 5771 5772 5773 5773 5774 5774 5775 5775 5775 5775 5775 5775 5775 5776 5776 5776 5776 5777 5777 5777 5778 5778 5778 5779
5769 5768 5766 5765 5763 5762 5761 5760 5759 5758 5759 5759 5759 5759 5759 5759 5761 5762 5763 5764 5765 5766 5766 5767 5768 5768 5768 5768 5769 5769 5769 5769 5769 5770 5769 5770 5770 5770 5770 5771 5771 5772 5772
5762 5760 5759 5757 5756 5754 5753 5752 5751 5750 5751 5751 5751 5752 5752 5753 5754 5755 5756 5756 5757 5758 5759 5760 5761 5761 5762 5762 5762 5762 5762 5762 5762 5762 5763 5763 5763 5763 5763 5764 5764 5765 5765
5755 5753 5751 5749 5748 5747 5745 5744 5744 5743 5743 5743 5744 5744 5745 5746 5747 5748 5748 5749 5749 5750 5751 5752 5753 5754 5754 5754 5755 5755 5755 5755 5755 5756 5756 5756 5756 5757 5757 5757 5757 5758 5758
5748 5746 5744 5742 5740 5739 5738 5737 5736 5736 5736 5736 5736 5737 5738 5739 5740 5741 5741 5742 5742 5743 5744 5744 5745 5746 5746 5747 5747 5747 5747 5748 5748 5749 5749 5749 5750 5750 5750 5750 5750 5750 5751
5740 5738 5737 5735 5733 5732 5730 5729 5729 5729 5728 5728 5729 5729 5730 5731 5732 5733 5734 5734 5734 5735 5736 5736 5737 5738 5739 5739 5739 5739 5740 5740 5741 5741 5742 5742 5742 5742 5743 5743 5743 5743 5744